Regional Weather Roundup
Issued by NWS

Home | Current Version | Previous Version | Text Only | Print | Product List | Glossary Off
Versions: 1 2 3 4 5 6 7 8 9 10 11 12 13 14 15 16 17 18 19 20 21 22 23 24 25 26 27 28 29 30 31 32 33 34 35 36 37 38 39 40 41 42 43 44 45 46 47 48 49 50

000
ASUS43 KDMX 261107
RWRIA

WEATHER ROUNDUP FOR IOWA
NATIONAL WEATHER SERVICE DES MOINES IA
600 AM CDT TUE MAY 26 2015

NOTE: "FAIR" INDICATES FEW OR NO CLOUDS BELOW 12,000 FEET WITH NO
SIGNIFICANT WEATHER AND/OR OBSTRUCTIONS TO VISIBILITY.

* - THESE STATIONS ARE NOT NWS STATIONS...THUS NOT UNDER NWS
QUALITY CONTROL.  THEY ALSO DO NOT REPORT WEATHER SUCH
AS PRECIPITATION OR FOG.

IAZ001>003-012>014-020>022-031>034-043>046-261200-
   NORTHWEST IOWA

CITY           SKY/WX    TMP DP  RH WIND       PRES   REMARKS
CARROLL *      CLOUDY    59  59 100 SE5       29.79F
CHEROKEE *     RAIN      61  61 100 SE6       29.78R
DENISON *      CLOUDY    59  59 100 E6        29.76F
LE MARS *      CLOUDY    61  61 100 E5        29.78R
ORANGE CITY *  LGT RAIN  57  57 100 E3        29.78R
SHELDON *      MOCLDY    57  57 100 NE13      29.77S
SIOUX CITY     CLOUDY    61  59  93 CALM      29.77S FOG
SPENCER        LGT RAIN  59  57  93 NE9       29.80R
STORM LAKE *   CLOUDY    59  57  94 S7        29.80F
$$

IAZ055>058-069>071-079>083-090>094-261200-
   SOUTHWEST IOWA

CITY           SKY/WX    TMP DP  RH WIND       PRES   REMARKS
ATLANTIC *     CLOUDY    59  59 100 CALM      29.77S
AUDUBON *      LGT RAIN  59  55  88 CALM      29.79F
COUNCIL BLFS * PTCLDY    59  59 100 S5        29.76F
CRESTON *      LGT RAIN  59  59 100 N5        29.78S
HARLAN  *      PTCLDY    59  59 100 CALM      29.80F
LAMONI         RAIN      63  60  90 CALM      29.78F FOG
RED OAK *      CLOUDY    59  59 100 CALM      29.77R
SHENANDOAH *   CLOUDY    61  61 100 SW5       29.77R
$$

IAZ047>049-059>061-072>074-084-261200-
   CENTRAL IOWA

CITY           SKY/WX    TMP DP  RH WIND       PRES   REMARKS
AMES           RAIN      60  58  92 NW13      29.79F FOG
ANKENY *       RAIN      61  61 100 NW7       29.78F
CHARITON *     LGT RAIN  61  61 100 N5        29.78F
DES MOINES     RAIN      62  59  90 N7        29.77S FOG
GRINNELL*      RAIN      61  57  88 NW14      29.79F
KNOXVILLE *    HVY RAIN  61  59  94 N7G13     29.77F
MARSHALLTOWN   LGT RAIN  60  58  92 W8        29.82R
PELLA *        HVY RAIN  61  61 100 N5        29.80F
PERRY *        RAIN      61  59  94 N6        29.80F
$$

IAZ004>006-015-016-023>025-035-036-261200-
   NORTH CENTRAL IOWA

CITY           SKY/WX    TMP DP  RH WIND       PRES   REMARKS
ALGONA *       CLOUDY    61  59  94 S14       29.82S
CLARION *      LGT RAIN  61  61 100 S15       29.84R
ESTHERVILLE    CLOUDY    56  55  97 NE6       29.81R
FORT DODGE *   CLOUDY    59  55  88 S8        29.83F
MASON CITY     CLOUDY    61  58  90 SW9       29.85R
FOREST CITY *  CLEAR     57  57 100 S10       29.83R
IOWA FALLS *   RAIN      59  57  94 W13       29.82F
$$

IAZ007>011-017>019-026>030-037>042-050>054-066-261200-
   NORTHEAST IOWA

CITY           SKY/WX    TMP DP  RH WIND       PRES   REMARKS
CEDAR RAPIDS   CLOUDY    66  65  96 E7        29.78F
CHARLES CITY * PTCLDY    59  59 100 CALM      29.83R
CLINTON *      MOCLDY    66  64  94 SE13      29.87R
DECORAH *      CLOUDY    61  59  94 VRB3      29.80F
DUBUQUE        CLOUDY    66  64  93 SE7       29.83F
MONTICELLO *   CLOUDY    68  68 100 E7        29.81S
OELWEIN *      PTCLDY    63  61  94 SE12      29.80S
WATERLOO       CLOUDY    62  60  93 SE6       29.77F
$$

IAZ064-065-067-068-078-261200-
   EAST CENTRAL IOWA

CITY           SKY/WX    TMP DP  RH WIND       PRES   REMARKS
DAVENPORT      CLOUDY    68  65  90 SE14      29.83S
IOWA CITY      LGT RAIN  67  65  93 SE8       29.80F
MT. PLEASANT * RAIN      66  66 100 SE8       29.80R
MUSCATINE *    CLOUDY    70  66  88 SE8       29.79F
QUAD CITIES    MOCLDY    69  65  86 SE12      29.82S
$$

IAZ062-063-075>077-085>089-095>099-261200-
   SOUTHEAST IOWA

CITY           SKY/WX    TMP DP  RH WIND       PRES   REMARKS
BURLINGTON     LGT RAIN  69  67  93 S12G20    29.81R
FAIRFIELD *    CLOUDY    66  64  94 SE10      29.78S FOG
FORT MADISON * LGT RAIN  68  66  94 SE12G17   29.81S
KEOKUK *       LGT RAIN  68  68 100 SE9G16    29.78F
OSKALOOSA *    RAIN      66  64  94 S5        29.78R
CENTERVILLE *  RAIN      63  63 100 NW10      29.77F
OTTUMWA        HVY RAIN  66  65  96 S8        29.77F FOG
WASHINGTON *   HVY RAIN  68  66  94 S14G24    29.82R
$$

ABBREVIATIONS USED IN REMARKS
   TC - TEMPERATURES IN CELSIUS
  WCI - WIND CHILL INDEX
   HX - HEAT INDEX
  VSB - VISIBILITY
$$



USA.gov is the U.S. government's official web portal to all federal, state and local government web resources and services.